STARLINK-11518 [DTC] (62462 NORAD) Tracking and Keplerian Element Data

This shows tracking and keplerian element data for the satellite.

Feedback or suggestion? Click here.




ElementValue
Catalog62462
NameSTARLINK-11518 [DTC]
Epoch Orbit671
Epoch Day35.22633667
Epoch Year2025
RAAN106.5504
Inclination42.9982
Eccentricity6.5E-05
Argument of Perigee282.9091
Mean Anonmoly77.1706
Mean Motion15.7788478
Decay Rate-4.058E-05
L11 62462U 24254A 25035.22633667 -.00004058 00000+0 -20446-4 0 9995
L22 62462 42.9982 106.5504 0000650 282.9091 77.1706 15.77884780 6716



Live tracking and technical data element details for STARLINK-11518 [DTC] (NORAD 62462). STARLINK-11518 [DTC] can be tracked NOW for your location showing map with azimuth and elevation plus other details from your city location.







IsCatalogInMostPopularTable: catalog: 62462, numindb: 19
Update: records affected: 1



GetName: 62462 STARLINK-11518 [DTC]

Hit Count: updated at: Mon, 19 May 2025 02:52:07 GMT